Regional Weather Roundup
Issued by NWS

Home | Current Version | Previous Version | Graphics & Text | Print | Product List | Glossary On
Versions: 1 2 3 4 5 6 7 8 9 10 11 12 13 14 15 16 17 18 19 20 21 22 23 24 25 26 27 28 29 30 31 32 33 34 35 36 37 38 39 40 41 42 43 44 45 46 47 48 49 50
000
ASUS45 KSLC 011010
RWRUT

UTAH REGIONAL WEATHER ROUNDUP
NATIONAL WEATHER SERVICE SALT LAKE CITY UT
300 AM MST SUN MAR 01 2015

UTZ001>011-023>025-011100-

NORTHERN UTAH

CITY           SKY/WX    TMP DP  RH WIND       PRES   REMARKS
BRIGHAM CITY   CLEAR     30  20  64 N7        30.01S WCI  24
HILL AFB       CLEAR     33  21  63 E17       29.98R WCI  21
LOGAN          CLEAR     27  17  66 CALM      30.02
OGDEN          CLEAR     29  22  75 CALM      29.98R
PROVO AIRPORT  MOCLDY    34  30  86 S5        29.99R WCI  30
SALT LAKE CITY MOCLDY    33  32  96 S3        29.98R
VERNAL         CLOUDY    32  25  75 N8        29.99R WCI  25
WENDOVER       CLOUDY    39  21  48 N12       29.99R WCI  32
HEBER CITY     FLURRIES  27  25  93 CALM      29.99R
WEST JORDAN    CLOUDY    28  28 100 CALM      29.99R

$$

UTZ012>022-026-027-011100-

SOUTHERN/CENTRAL UTAH

CITY           SKY/WX    TMP DP  RH WIND       PRES   REMARKS
BLANDING       CLOUDY    29  29 100 N3        30.07R
BRYCE CANYON   LGT SNOW  20  18  92 CALM      29.96S FOG
CEDAR CITY     MOCLDY    25  22  88 E5        29.93S WCI  19
DELTA          CLOUDY    32  32 100 CALM      29.98S
HANKSVILLE     MOCLDY    32  32 100 N3        30.00S
MILFORD        MOCLDY    30  26  85 W6        29.96R WCI  24
MOAB/CYNLANDS  MOCLDY    30  29  96 CALM      29.97R
PRICE          CLOUDY    32  29  88 E3        29.97R
ST GEORGE      MOSUNNY   45  34  65 E3        29.97S
KANAB            N/A     32  32 100 N9        30.00F WCI  24

$$

REGIONAL REPORTS     COLORADO/ARIZONA

CITY           SKY/WX    TMP DP  RH WIND       PRES   REMARKS
CRAIG, CO        N/A     22  19  89 SW7       30.01R FOG     WCI  13
GRAND JUNCTION CLOUDY    28  27  96 CALM      29.98R
RIFLE          MOCLDY    30  26  85 E3        29.97R
MONTROSE       CLOUDY    27  25  92 S7        30.00F WCI  19
CORTEZ         PTCLDY    27  26  96 CALM      30.00S
PAGE, AZ       CLOUDY    38  33  82 S3        29.98S
GRAND CANYON   CLOUDY    32  30  92 NE3       29.96S
KINGMAN        CLOUDY    49  34  56 SE6       29.89F
FLAGSTAFF      LGT SNOW  33  31  92 CALM      29.95S VSB 3/4

$$

REGIONAL REPORTS    NEVADA/IDAHO/WYOMING

CITY           SKY/WX    TMP DP  RH WIND       PRES   REMARKS
LAS VEGAS, NV  MOCLDY    51  35  54 N3        29.86R
ELY            LGT SNOW  28  26  92 NE8       29.95R FOG     WCI  20
ELKO           CLEAR     30  21  69 NE12      29.97R WCI  20
POCATELLO, ID  CLEAR     21   7  54 NE9       30.11R WCI  11
BURLEY         CLEAR     24  11  57 E8        30.08R WCI  15
EVANSTON, WY   CLOUDY    19  16  88 E12       29.98R WCI   7
ROCK SPRINGS   CLEAR      9   5  84 E12       30.04R WCI  -6

$$


USA.gov is the U.S. government's official web portal to all federal, state and local government web resources and services.